Дата Пункты Температура Давл., мм. Влажн., % Ветер Погодные явления
Воздуха Воды Направл. Скорость
12.01.15 07:00 Одесса 1.0 2.0 754 96 З 1 08 часов
12.01.15 04:00 Одесса 1.0 2.0 754 98 З 1 05 часов
12.01.15 01:00 Одесса 1.0 2.0 752 98 Пн-З 2 02 часа
11.01.15 07:00 Одесса 3.0 2.0 754 88 Пн-З 1 20 часов
11.01.15 04:00 Одесса 4.0 2.0 752 76 Пд-З 2 17 часов
11.01.15 01:00 Одесса 6.0 2.0 751 73 З 2 14 часов
11.01.15 10:00 Одесса 6.0 2.0 751 80 З 3 11 часов
11.01.15 07:00 Одесса 4.0 2.0 750 96 З 5 08 часов
11.01.15 04:00 Одесса 4.0 2.0 749 86 Пд-З 5 05 часов
11.01.15 01:00 Одесса 4.0 2.0 750 75 Пд-З 3 02 часа
10.01.15 10:00 Одесса 3.0 2.0 752 79 Пд-З 3 23 часа
10.01.15 07:00 Одесса 2.0 2.0 752 88 З 2 20 часов
10.01.15 04:00 Одесса 3.0 1.0 751 84 З 2 17 часов
10.01.15 01:00 Одесса 6.0 1.0 749 72 З 2 14 часов
10.01.15 10:00 Одесса 4.0 1.0 749 76 З 3 11 часов
10.01.15 01:00 Одесса -1.0 1.0 752 87 Пд-З 4 02 часа
09.01.15 10:00 Одесса -3.0 1.0 755 86 Пд-З 3 23 часа
09.01.15 07:00 Одесса -4.0 1.0 757 94 З 3 20 часов
09.01.15 04:00 Одесса -4.0 1.0 760 96 З 3 17 часов
09.01.15 01:00 Одесса -6.0 1.0 760 95 З 5 14 часов
Количество строк
411 412 413 414 415 416 417 418 419 420
Page 413 of 458